Rochelle, IL

9:02 AM CST on January 20, 2018 (GMT -0600)
Rochelle

Weather History for KRPJ - June, 2012

Change the Weather History Date:

Wednesday, June 27, 2012

  Actual Average (KRFD) Record (KRFD)
Temperature  
Mean Temperature 71 °F -  
Max Temperature 90 °F 82 °F 103 °F (1933)
Min Temperature 53 °F 61 °F 43 °F (1905)
Cooling Degree Days 6    
Growing Degree Days 21 (Base 50)    
Moisture  
Dew Point 55 °F    
Average Humidity 54    
Maximum Humidity 87    
Minimum Humidity 30    
Precipitation  
Precipitation 0.00 in - - ()
Sea Level Pressure  
Sea Level Pressure 29.88 in    
Wind  
Wind Speed 11 mph (South)    
Max Wind Speed 22 mph    
Max Gust Speed 31 mph    
Visibility 10 miles    
Events      
Averages and records for this station are not official NWS values.
T = Trace of Precipitation, MM = Missing Value Source: NWS Daily Summary

Daily Weather History Graph

Daily Weather History Graph

Search for Another Location

Airport or City:

Trip Planner

Search our weather history database for the weather conditions in past years. The results will help you decide how hot, cold, wet, or windy it might be!

Date:

Astronomy

Jun. 27, 2012 Rise Set
Actual Time 5:23 AM CDT 8:35 PM CDT
Civil Twilight 4:48 AM CDT 9:09 PM CDT
Nautical Twilight 4:04 AM CDT 9:54 PM CDT
Astronomical Twilight 3:11 AM CDT 10:47 PM CDT
Moon 1:56 PM CDT (6/27) 12:27 AM CDT (6/27)
Length of Visible Light 16h 21m
Length of Day
15h 12m
First Quarter, 56% of the Moon is Illuminated
Jun 27
First Quarter
Jul 3
Full
Jul 10
Last Quarter
Jul 18
New
Jul 26
First Quarter

Hourly Weather History & Observations

Time (CDT) Temp. Heat Index Dew Point Humidity Pressure Visibility Wind Dir Wind Speed Gust Speed Precip Events Conditions
12:15 AM 62.6 °F - 52.2 °F 69% 29.94 in 10.0 mi SSE 8.1 mph - N/A   Clear
12:35 AM 62.6 °F - 52.3 °F 69% 29.94 in 10.0 mi SSE 8.1 mph - N/A   Clear
12:55 AM 61.0 °F - 52.2 °F 73% 29.93 in 10.0 mi SSE 6.9 mph - N/A   Clear
1:15 AM 59.9 °F - 52.2 °F 76% 29.93 in 10.0 mi SSE 6.9 mph - N/A   Clear
1:35 AM 57.4 °F - 51.8 °F 82% 29.94 in 10.0 mi SSE 5.8 mph - N/A   Clear
1:55 AM 58.1 °F - 51.8 °F 80% 29.93 in 10.0 mi SSE 5.8 mph - N/A   Clear
2:15 AM 57.7 °F - 51.8 °F 81% 29.93 in 10.0 mi South 8.1 mph - N/A   Clear
2:35 AM 58.1 °F - 51.8 °F 80% 29.92 in 10.0 mi SSE 8.1 mph - N/A   Clear
2:55 AM 57.4 °F - 51.4 °F 81% 29.93 in 10.0 mi SSE 4.6 mph - N/A   Clear
3:35 AM 54.1 °F - 50.2 °F 86% 29.93 in 10.0 mi SSE 6.9 mph - N/A   Clear
3:55 AM 55.8 °F - 50.9 °F 84% 29.93 in 10.0 mi SSE 5.8 mph - N/A   Clear
4:15 AM 53.4 °F - 49.6 °F 87% 29.92 in 10.0 mi SSE 5.8 mph - N/A   Clear
4:35 AM 54.1 °F - 50.2 °F 86% 29.92 in 10.0 mi SE 4.6 mph - N/A   Clear
4:55 AM 54.1 °F - 50.0 °F 86% 29.93 in 10.0 mi SE 4.6 mph - N/A   Clear
5:15 AM 53.1 °F - 48.6 °F 85% 29.93 in 10.0 mi SSE 6.9 mph - N/A   Clear
5:35 AM 54.0 °F - 49.5 °F 85% 29.94 in 7.0 mi NW 8.1 mph - N/A   Clear
5:55 AM 55.6 °F - 50.0 °F 81% 29.94 in 10.0 mi SE 6.9 mph - N/A   Clear
6:15 AM 58.1 °F - 50.4 °F 75% 29.95 in 10.0 mi SE 6.9 mph - N/A   Clear
6:35 AM 59.4 °F - 51.1 °F 74% 29.95 in 10.0 mi SSE 8.1 mph - N/A   Clear
7:35 AM 66.7 °F - 52.2 °F 59% 29.96 in 10.0 mi South 6.9 mph - N/A   Clear
7:55 AM 70.5 °F - 50.7 °F 49% 29.96 in 10.0 mi South 11.5 mph 16.1 mph N/A   Clear
8:15 AM 72.0 °F - 49.3 °F 45% 29.96 in 10.0 mi South 16.1 mph 20.7 mph N/A   Clear
8:35 AM 73.4 °F - 49.6 °F 43% 29.96 in 10.0 mi SSW 13.8 mph 23.0 mph N/A   Clear
8:55 AM 74.7 °F - 50.2 °F 42% 29.96 in 10.0 mi SSW 16.1 mph 19.6 mph N/A   Clear
9:15 AM 75.6 °F - 50.4 °F 41% 29.96 in 10.0 mi South 16.1 mph - N/A   Clear
9:35 AM 76.1 °F - 50.4 °F 40% 29.96 in 10.0 mi South 17.3 mph 20.7 mph N/A   Clear
9:55 AM 77.0 °F - 50.2 °F 39% 29.95 in 10.0 mi SSW 15.0 mph - N/A   Clear
10:15 AM 78.4 °F - 52.3 °F 40% 29.94 in 10.0 mi SSW 15.0 mph 20.7 mph N/A   Clear
10:35 AM 79.7 °F - 51.3 °F 37% 29.94 in 10.0 mi South 19.6 mph 24.2 mph N/A   Clear
10:55 AM 80.2 °F - 51.4 °F 37% 29.93 in 10.0 mi SSW 16.1 mph 24.2 mph N/A   Clear
11:15 AM 81.5 °F - 51.1 °F 35% 29.93 in 10.0 mi SSW 20.7 mph 24.2 mph N/A   Clear
11:35 AM 81.9 °F - 51.3 °F 34% 29.92 in 10.0 mi South 18.4 mph 24.2 mph N/A   Clear
11:55 AM 82.8 °F - 52.0 °F 34% 29.92 in 10.0 mi SSW 16.1 mph 23.0 mph N/A   Clear
12:15 PM 83.5 °F - 51.6 °F 33% 29.92 in 10.0 mi SSW 17.3 mph 23.0 mph N/A   Clear
12:35 PM 83.8 °F - 51.8 °F 33% 29.90 in 10.0 mi South 18.4 mph - N/A   Clear
12:55 PM 84.9 °F - 52.3 °F 32% 29.89 in 10.0 mi South 19.6 mph 24.2 mph N/A   Clear
1:15 PM 85.5 °F - 52.9 °F 33% 29.89 in 10.0 mi South 18.4 mph 23.0 mph N/A   Clear
1:35 PM 86.2 °F - 52.7 °F 32% 29.88 in 10.0 mi South 20.7 mph 24.2 mph N/A   Clear
1:55 PM 86.5 °F - 52.5 °F 31% 29.87 in 10.0 mi South 19.6 mph 25.3 mph N/A   Clear
2:15 PM 87.6 °F - 52.3 °F 30% 29.85 in 10.0 mi South 20.7 mph 25.3 mph N/A   Clear
2:35 PM 88.9 °F 87.1 °F 55.4 °F 32% 29.84 in 10.0 mi South 17.3 mph 25.3 mph N/A   Clear
2:55 PM 88.7 °F 86.7 °F 54.5 °F 31% 29.83 in 10.0 mi South 19.6 mph 26.5 mph N/A   Clear
3:15 PM 88.9 °F 87.1 °F 55.6 °F 32% 29.81 in 10.0 mi South 19.6 mph 25.3 mph N/A   Clear
3:35 PM 89.1 °F 87.3 °F 55.4 °F 32% 29.81 in 10.0 mi South 21.9 mph 28.8 mph N/A   Clear
3:55 PM 89.6 °F 87.7 °F 55.6 °F 31% 29.80 in 10.0 mi South 21.9 mph 28.8 mph N/A   Scattered Clouds
4:15 PM 89.6 °F 88.1 °F 56.8 °F 33% 29.80 in 10.0 mi South 18.4 mph 31.1 mph N/A   Clear
4:35 PM 89.4 °F 87.9 °F 56.7 °F 33% 29.79 in 10.0 mi SSW 19.6 mph 25.3 mph N/A   Clear
4:55 PM 89.4 °F 88.2 °F 57.7 °F 34% 29.80 in 10.0 mi South 20.7 mph - N/A   Clear
5:15 PM 89.1 °F 88.2 °F 59.0 °F 36% 29.80 in 10.0 mi South 18.4 mph 21.9 mph N/A   Clear
5:35 PM 88.9 °F 88.3 °F 59.5 °F 37% 29.80 in 10.0 mi SSW 13.8 mph 20.7 mph N/A   Clear
5:55 PM 88.5 °F 88.3 °F 60.6 °F 39% 29.80 in 10.0 mi SSW 16.1 mph - N/A   Clear
6:15 PM 87.8 °F 87.6 °F 60.8 °F 40% 29.80 in 10.0 mi SSW 10.4 mph - N/A   Clear
6:35 PM 87.3 °F 86.7 °F 59.2 °F 39% 29.80 in 10.0 mi SSW 13.8 mph 20.7 mph N/A   Clear
6:55 PM 86.5 °F 86.5 °F 60.8 °F 42% 29.80 in 10.0 mi SSW 10.4 mph - N/A   Clear
7:15 PM 85.3 °F 85.7 °F 61.7 °F 45% 29.80 in 10.0 mi SSW 9.2 mph - N/A   Clear
7:35 PM 84.0 °F 84.5 °F 62.1 °F 47% 29.80 in 10.0 mi SSW 8.1 mph - N/A   Clear
7:55 PM 82.2 °F 83.2 °F 62.6 °F 51% 29.80 in 10.0 mi South 5.8 mph - N/A   Clear
8:15 PM 79.9 °F - 62.8 °F 56% 29.80 in 10.0 mi South 6.9 mph - N/A   Clear
8:35 PM 78.1 °F - 62.1 °F 58% 29.79 in 10.0 mi South 6.9 mph - N/A   Clear
8:55 PM 77.2 °F - 61.3 °F 58% 29.79 in 10.0 mi South 6.9 mph - N/A   Clear
9:15 PM 75.4 °F - 61.3 °F 62% 29.80 in 10.0 mi South 5.8 mph - N/A   Clear
9:35 PM 73.4 °F - 61.7 °F 67% 29.80 in 10.0 mi South 5.8 mph - N/A   Clear
9:55 PM 72.9 °F - 61.7 °F 68% 29.80 in 10.0 mi SSE 6.9 mph - N/A   Clear
10:15 PM 72.5 °F - 62.1 °F 70% 29.81 in 10.0 mi SE 5.8 mph - N/A   Clear
10:35 PM 72.1 °F - 61.7 °F 70% 29.81 in 10.0 mi SSE 5.8 mph - N/A   Clear
10:55 PM 72.1 °F - 61.7 °F 70% 29.81 in 10.0 mi SSE 6.9 mph - N/A   Clear
11:35 PM 72.0 °F - 61.5 °F 70% 29.81 in 10.0 mi South 5.8 mph - N/A   Clear
11:55 PM 70.9 °F - 61.7 °F 73% 29.81 in 10.0 mi South 5.8 mph - N/A   Clear